TimeMDT,TemperatureF,Dew PointF,Humidity,Sea Level PressureIn,VisibilityMPH,Wind Direction,Wind SpeedMPH,Gust SpeedMPH,PrecipitationIn,Events,Conditions,WindDirDegrees,DateUTC
12:35 AM,28.4,26.2,92,30.30,10.0,East,8.1,-,N/A,,Overcast,80,2012-10-26 06:35:00
12:55 AM,28.4,26.4,92,30.31,10.0,East,8.1,-,N/A,,Overcast,80,2012-10-26 06:55:00
1:15 AM,28.0,26.1,92,30.31,10.0,NE,10.4,-,N/A,,Overcast,50,2012-10-26 07:15:00
1:35 AM,27.9,26.2,94,30.31,10.0,NE,9.2,-,N/A,,Overcast,50,2012-10-26 07:35:00
1:55 AM,28.2,26.6,94,30.32,10.0,ENE,10.4,-,N/A,,Overcast,60,2012-10-26 07:55:00
2:15 AM,28.4,26.6,93,30.32,10.0,ENE,11.5,-,N/A,,Overcast,60,2012-10-26 08:15:00
2:35 AM,28.4,26.8,94,30.33,7.0,ENE,10.4,-,N/A,,Overcast,60,2012-10-26 08:35:00
2:55 AM,28.4,27.0,94,30.33,2.0,ENE,10.4,-,N/A,,Overcast,60,2012-10-26 08:55:00
3:15 AM,28.2,27.0,95,30.33,2.0,ENE,10.4,-,N/A,,Overcast,60,2012-10-26 09:15:00
3:35 AM,28.0,27.0,96,30.33,1.0,ENE,10.4,-,N/A,,Overcast,60,2012-10-26 09:35:00
3:55 AM,27.9,26.8,96,30.34,1.0,ENE,10.4,-,N/A,,Overcast,70,2012-10-26 09:55:00
4:15 AM,27.5,26.6,96,30.34,1.5,ENE,9.2,-,N/A,,Overcast,70,2012-10-26 10:15:00
4:35 AM,27.5,26.6,96,30.35,1.0,ENE,8.1,-,N/A,,Overcast,60,2012-10-26 10:35:00
4:55 AM,27.5,26.6,96,30.36,1.0,ENE,6.9,-,N/A,,Overcast,60,2012-10-26 10:55:00
5:15 AM,27.5,26.6,96,30.37,1.8,NE,5.8,-,N/A,,Overcast,40,2012-10-26 11:15:00
5:35 AM,27.5,26.6,96,30.39,1.0,NNE,8.1,-,N/A,,Overcast,20,2012-10-26 11:35:00
6:15 AM,26.6,25.7,96,30.39,3.0,NNE,5.8,-,N/A,,Overcast,30,2012-10-26 12:15:00
6:35 AM,26.6,25.7,96,30.40,4.0,NNE,4.6,-,N/A,,Overcast,30,2012-10-26 12:35:00
6:55 AM,26.6,25.7,96,30.41,1.8,NNE,3.5,-,N/A,,Overcast,30,2012-10-26 12:55:00
7:15 AM,26.6,25.7,96,30.41,3.0,NE,3.5,-,N/A,,Overcast,40,2012-10-26 13:15:00
7:35 AM,26.6,25.7,96,30.41,2.5,Calm,Calm,-,N/A,,Overcast,0,2012-10-26 13:35:00
7:55 AM,26.6,25.7,96,30.42,1.8,NNE,3.5,-,N/A,,Overcast,30,2012-10-26 13:55:00
8:15 AM,27.1,26.1,96,30.43,2.5,NNE,3.5,-,N/A,,Overcast,30,2012-10-26 14:15:00
8:55 AM,28.6,26.6,92,30.45,2.0,East,3.5,-,N/A,,Overcast,80,2012-10-26 14:55:00
9:15 AM,27.9,25.3,90,30.45,2.0,East,3.5,-,N/A,,Overcast,90,2012-10-26 15:15:00
9:35 AM,30.2,25.7,83,30.45,3.0,East,3.5,-,N/A,,Mostly Cloudy,90,2012-10-26 15:35:00
10:15 AM,29.1,26.1,88,30.46,5.0,South,4.6,-,N/A,,Overcast,180,2012-10-26 16:15:00
10:35 AM,30.2,26.6,86,30.47,5.0,SW,3.5,-,N/A,,Overcast,220,2012-10-26 16:35:00
10:55 AM,30.2,26.4,86,30.47,7.0,SW,6.9,-,N/A,,Overcast,220,2012-10-26 16:55:00
11:15 AM,31.3,26.1,81,30.46,7.0,SW,5.8,-,N/A,,Overcast,220,2012-10-26 17:15:00
11:35 AM,30.2,25.7,83,30.46,7.0,SW,6.9,-,N/A,,Overcast,220,2012-10-26 17:35:00
11:55 AM,30.0,25.9,85,30.46,7.0,WSW,5.8,-,N/A,,Overcast,240,2012-10-26 17:55:00
12:15 PM,30.6,26.2,84,30.45,7.0,WSW,6.9,-,N/A,,Overcast,250,2012-10-26 18:15:00
12:35 PM,31.3,25.7,80,30.44,10.0,SSW,5.8,-,N/A,,Overcast,200,2012-10-26 18:35:00
12:55 PM,31.6,25.7,79,30.43,10.0,SSW,5.8,-,N/A,,Overcast,200,2012-10-26 18:55:00
1:15 PM,31.6,26.2,80,30.41,10.0,SW,4.6,-,N/A,,Overcast,230,2012-10-26 19:15:00
1:55 PM,32.4,26.1,78,30.39,10.0,Calm,Calm,-,N/A,,Overcast,0,2012-10-26 19:55:00
2:15 PM,32.9,25.5,74,30.38,10.0,SSW,3.5,-,N/A,,Mostly Cloudy,210,2012-10-26 20:15:00
2:35 PM,32.7,25.5,75,30.37,10.0,Calm,Calm,-,N/A,,Scattered Clouds,0,2012-10-26 20:35:00
2:55 PM,33.6,25.5,72,30.36,10.0,South,5.8,-,N/A,,Mostly Cloudy,180,2012-10-26 20:55:00
3:15 PM,33.8,26.1,73,30.36,10.0,SW,4.6,-,N/A,,Overcast,220,2012-10-26 21:15:00
3:35 PM,32.9,25.9,75,30.35,10.0,South,6.9,-,N/A,,Mostly Cloudy,170,2012-10-26 21:35:00
3:55 PM,33.8,26.8,75,30.34,10.0,South,3.5,-,N/A,,Overcast,190,2012-10-26 21:55:00
4:15 PM,33.1,25.7,74,30.33,10.0,South,4.6,-,N/A,,Overcast,180,2012-10-26 22:15:00
4:35 PM,34.2,26.2,73,30.32,10.0,SE,5.8,-,N/A,,Mostly Cloudy,130,2012-10-26 22:35:00
4:55 PM,32.5,25.7,76,30.32,10.0,SE,5.8,-,N/A,,Scattered Clouds,140,2012-10-26 22:55:00
5:15 PM,32.2,25.7,77,30.32,10.0,SSE,4.6,-,N/A,,Clear,150,2012-10-26 23:15:00
5:35 PM,31.8,25.7,78,30.31,10.0,SE,3.5,-,N/A,,Clear,140,2012-10-26 23:35:00
5:55 PM,30.7,25.7,82,30.30,10.0,SE,5.8,-,N/A,,Clear,130,2012-10-26 23:55:00
6:15 PM,29.7,25.7,85,30.30,10.0,SSE,3.5,-,N/A,,Clear,150,2012-10-27 00:15:00
6:35 PM,28.9,26.1,89,30.30,10.0,Calm,Calm,-,N/A,,Clear,0,2012-10-27 00:35:00
6:55 PM,28.8,26.1,90,30.30,10.0,SSE,3.5,-,N/A,,Clear,160,2012-10-27 00:55:00
7:15 PM,28.6,25.9,90,30.29,10.0,SSE,3.5,-,N/A,,Clear,160,2012-10-27 01:15:00
7:35 PM,28.2,25.5,90,30.29,10.0,Calm,Calm,-,N/A,,Clear,0,2012-10-27 01:35:00
7:55 PM,28.0,25.3,90,30.29,10.0,SSE,3.5,-,N/A,,Clear,150,2012-10-27 01:55:00
8:15 PM,26.1,23.5,90,30.28,10.0,ESE,4.6,-,N/A,,Clear,110,2012-10-27 02:15:00
8:35 PM,27.3,24.6,90,30.27,10.0,ESE,4.6,-,N/A,,Clear,120,2012-10-27 02:35:00
8:55 PM,26.1,23.5,90,30.26,10.0,ESE,6.9,-,N/A,,Clear,120,2012-10-27 02:55:00
9:15 PM,24.8,23.0,93,30.25,10.0,ESE,4.6,-,N/A,,Clear,120,2012-10-27 03:15:00
9:35 PM,24.6,23.0,94,30.25,10.0,Calm,Calm,-,N/A,,Clear,0,2012-10-27 03:35:00
9:55 PM,23.9,22.5,94,30.24,10.0,Calm,Calm,-,N/A,,Clear,0,2012-10-27 03:55:00
10:15 PM,23.2,21.9,95,30.24,10.0,Calm,Calm,-,N/A,,Clear,0,2012-10-27 04:15:00
10:35 PM,23.9,23.0,96,30.23,10.0,Calm,Calm,-,N/A,,Clear,0,2012-10-27 04:35:00
10:55 PM,24.3,23.0,95,30.22,10.0,ENE,3.5,-,N/A,,Clear,70,2012-10-27 04:55:00
11:15 PM,24.8,23.5,95,30.21,10.0,SE,3.5,-,N/A,,Clear,140,2012-10-27 05:15:00
11:35 PM,26.8,24.8,92,30.21,10.0,Calm,Calm,-,N/A,,Clear,0,2012-10-27 05:35:00
11:55 PM,25.7,23.9,93,30.20,10.0,East,3.5,-,N/A,,Clear,90,2012-10-27 05:55:00